Flag for Botswana Weather past 2 weeks in Molepolole, Botswana

Now
70 °F

Passing clouds.


Feels Like: 70 °F
Forecast: 72 / 89 °F
Wind: 5 mph from Southeast

Location: Seretse Khama International Airport

Current Time: Mar 7, 2015 at 7:33:30 AM

Latest Report: Mar 7, 2015 at 7:00 AM


Visibility: N/A

Pressure: 30.15 "Hg

Humidity: 60%

Dew point: 55 °F

Location of MolepololeLocation

Historic Weather in Molepolole — Graph

°F

Molepolole temperature yesterday

Maximum temperature yesterday: 91 °F (at 3:00 PM)
Minimum temperature yesterday: 64 °F (at 6:00 AM)
Average temperature yesterday: 81 °F

Past Weeks' High & Low Weather Summary

 TemperatureHumidityPressure
High99 °F (Feb 20, 2:00 PM)94% (Mar 2, 4:00 AM)30.30 "Hg (Mar 2, 4:00 AM)
Low59 °F (Mar 4, 6:00 AM)13% (Feb 20, 3:00 PM)29.86 "Hg (Feb 20, 4:00 PM)
Average78 °F44%30.05 "Hg
* Reported Feb 20 6:00 AM — Mar 7 6:00 AM, Molepolole, Weather by CustomWeather, © 2015

Note: Actual official high and low records may vary slightly from our data, if they occured in-between our weather recording intervals... More about our weather records

Advertising

Molepolole weather history for previous 24 hours

 ConditionsComfort  
Time TempWeatherWind HumidityBarometerVisibility
6:00 AM
Sat, Mar 7
70 °FSunny.6 mph60%30.09 "Hg10 mi
5:00 AM68 °FClear.5 mph64%30.09 "Hg10 mi
2:00 AM73 °FClear.5 mph50%29.89 "Hg10 mi
12:00 AM77 °FClear.8 mph42%30.07 "Hg10 mi
11:00 PM
Fri, Mar 6
77 °FClear.6 mph39%30.07 "Hg10 mi
10:00 PM79 °FClear.6 mph37%30.07 "Hg10 mi
9:00 PM81 °FClear.6 mph32%30.07 "Hg10 mi
8:00 PM82 °FClear.7 mph28%30.04 "Hg10 mi
7:00 PM86 °FClear.6 mph25%30.04 "Hg10 mi
6:00 PM91 °FPassing clouds.8 mph20%30.04 "HgN/A
5:00 PM91 °FPassing clouds.3 mph21%30.04 "HgN/A
4:00 PM91 °FPassing clouds.7 mph21%30.04 "HgN/A
3:00 PM91 °FPassing clouds.7 mph21%30.07 "HgN/A
2:00 PM90 °FPassing clouds.7 mph22%30.09 "HgN/A
1:00 PM88 °FPassing clouds.9 mph24%30.12 "HgN/A
12:00 PM88 °FPassing clouds.10 mph24%30.15 "HgN/A
11:00 AM84 °FPassing clouds.12 mph29%30.18 "HgN/A
10:00 AM81 °FPassing clouds.13 mph30%30.18 "HgN/A
9:00 AM79 °FSunny.16 mph32%30.18 "Hg10 mi
8:00 AM73 °FSunny.10 mph44%30.15 "Hg10 mi
7:00 AM68 °FSunny.9 mph56%30.12 "Hg10 mi
Weather by CustomWeather, © 2015

See weather overviewHow to use our weather pages